DW4277 Weather Reports


Display with metric or nautical units.
time (UTC)temp
F
wind
direction
speed
MPH
gust
MPH
rain 1hr
in
rain 24hr
in
rain mn
in
humidity
%
barometer
mb
20260901073104 71 4 15.0 31.0 0.00 0.23 0.11 64 1019.2
20260901071558 70 321 10.0 25.0 0.00 0.23 0.11 66 1019.0
20260901070100 70 341 10.0 25.0 0.01 0.23 0.11 66 1019.0
20260901064547 69 325 16.0 26.0 0.01 0.23 0.11 67 1018.9
20260901063047 68 14 19.0 30.0 0.01 0.23 0.11 68 1018.9
20260901061539 67 352 12.0 21.0 0.01 0.23 0.11 70 1018.8
20260901060035 67 333 0.0 19.0 0.00 0.22 0.10 72 1018.7
20260901054530 66 333 5.0 18.0 0.00 0.22 0.10 72 1018.6
20260901053031 66 333 10.0 17.0 0.00 0.22 0.10 73 1018.5
20260901051521 65 337 0.0 9.0 0.00 0.22 0.10 75 1018.4
20260901050017 64 338 1.0 21.0 0.00 0.22 0.10 76 1018.3
20260901044515 64 330 0.0 0.0 0.00 0.22 0.10 78 1018.1
20260901043018 64 330 0.0 0.0 0.00 0.22 0.10 77 1018.0
20260901041510 65 330 0.0 0.0 0.00 0.22 0.10 77 1017.8
20260901040010 65 330 3.0 19.0 0.00 0.22 0.10 76 1017.7
20260901034509 65 328 14.0 23.0 0.00 0.22 0.10 78 1017.6
20260901033007 64 328 8.0 18.0 0.00 0.22 0.10 80 1017.5
20260901031507 64 331 3.0 25.0 0.00 0.22 0.10 81 1017.4
20260901030014 64 328 13.0 24.0 0.00 0.22 0.10 82 1017.2
20260901024506 64 331 15.0 33.0 0.00 0.22 0.10 83 1017.2
20260901023002 63 331 1.0 21.0 0.00 0.22 0.10 86 1017.2
20260901021502 63 325 10.0 21.0 0.00 0.22 0.10 88 1017.0
20260901020113 63 329 13.0 23.0 0.00 0.22 0.10 90 1016.9
20260901014559 62 317 12.0 18.0 0.00 0.22 0.10 91 1016.9
20260901013105 62 240 0.0 0.0 0.00 0.22 0.10 91 1016.9
20260901011556 63 240 0.0 0.0 0.00 0.22 0.10 91 1016.9
20260901010052 63 240 0.0 0.0 0.00 0.22 0.10 90 1016.9
20260901004551 63 240 0.0 0.0 0.00 0.22 0.10 90 1016.8
20260901003053 63 240 0.0 0.0 0.00 0.22 0.10 90 1016.9
20260901001603 63 240 2.0 16.0 0.00 0.22 0.10 90 1016.9
20260901000050 63 240 0.0 12.0 0.00 0.22 0.10 89 1016.9
20260831234557 64 244 0.0 0.0 0.00 0.22 0.10 89 1016.8
20260831233047 64 244 2.0 11.0 0.00 0.22 0.10 89 1017.0
20260831231541 64 244 0.0 1.0 0.03 0.22 0.10 89 1017.2
20260831230036 65 246 1.0 11.0 0.08 0.22 0.10 88 1017.4
20260831224535 65 244 0.0 14.0 0.13 0.22 0.10 88 1017.5
20260831223033 65 240 1.0 15.0 0.17 0.22 0.10 87 1017.7
20260831221528 66 259 2.0 20.0 0.14 0.18 0.06 85 1018.3
20260831220024 67 281 7.0 17.0 0.10 0.13 0.01 84 1018.5
20260831214521 68 279 2.0 18.0 0.07 0.09 0.09 82 1018.5
20260831213029 69 276 11.0 24.0 0.04 0.05 0.05 79 1018.3
20260831211514 71 246 1.0 9.0 0.04 0.04 0.04 74 1017.6
20260831210016 73 296 0.0 0.0 0.02 0.02 0.02 70 1017.2
20260831204512 74 336 0.0 1.0 0.02 0.02 0.02 65 1016.7
20260831203005 76 341 0.0 0.0 0.00 0.00 0.00 56 1016.0
20260831201502 77 341 0.0 0.0 0.00 0.00 0.00 55 1015.3
20260831200058 77 341 0.0 0.0 0.00 0.00 0.00 50 1014.8
20260831194631 77 341 0.0 0.0 0.00 0.00 0.00 49 1014.5
20260831193057 77 341 0.0 0.0 0.00 0.00 0.00 49 1014.0
20260831191558 78 341 0.0 0.0 0.00 0.00 0.00 48 1013.7
20260831190110 78 341 0.0 0.0 0.00 0.00 0.00 47 1013.4
20260831184620 78 341 0.0 0.0 0.00 0.00 0.00 47 1013.4
20260831183102 78 341 0.0 0.0 0.00 0.00 0.00 46 1013.2
20260831181555 79 341 0.0 0.0 0.00 0.00 0.00 46 1013.1
20260831180053 79 341 0.0 0.0 0.00 0.00 0.00 45 1013.0
20260831174606 80 341 0.0 0.0 0.00 0.00 0.00 44 1013.0
20260831173101 81 341 0.0 10.0 0.00 0.00 0.00 43 1012.7
20260831171551 81 341 6.0 17.0 0.00 0.00 0.00 42 1012.8
20260831170056 82 333 14.0 25.0 0.00 0.00 0.00 41 1012.8
20260831164553 82 330 15.0 32.0 0.00 0.00 0.00 40 1012.9
20260831163052 83 359 15.0 28.0 0.00 0.00 0.00 41 1013.0
20260831161549 83 336 15.0 28.0 0.00 0.00 0.00 41 1013.1
20260831160052 83 336 15.0 24.0 0.00 0.00 0.00 42 1013.0
20260831154548 83 3 8.0 19.0 0.00 0.00 0.00 44 1013.1
20260831153050 83 17 0.0 18.0 0.00 0.00 0.00 46 1013.1
20260831151556 82 3 3.0 15.0 0.00 0.00 0.00 45 1013.1
20260831150049 82 32 6.0 18.0 0.00 0.00 0.00 46 1013.3
20260831144554 82 21 0.0 20.0 0.00 0.00 0.00 46 1013.3
20260831143047 83 21 10.0 18.0 0.00 0.00 0.00 46 1013.4
20260831141546 83 341 13.0 28.0 0.00 0.00 0.00 46 1013.5
20260831140043 83 327 16.0 28.0 0.00 0.00 0.00 46 1013.6
20260831134542 82 329 13.0 34.0 0.00 0.00 0.00 45 1013.7
20260831133039 82 300 17.0 34.0 0.00 0.00 0.00 46 1013.7
20260831131541 81 343 17.0 35.0 0.00 0.00 0.00 47 1014.0
20260831130046 81 320 23.0 44.0 0.00 0.00 0.00 48 1014.0
20260831124538 82 334 14.0 33.0 0.00 0.00 0.00 49 1014.2
20260831123037 81 38 19.0 35.0 0.00 0.00 0.00 49 1014.3
20260831121538 81 348 23.0 35.0 0.00 0.00 0.00 49 1014.5
20260831120036 80 340 26.0 56.0 0.00 0.00 0.00 50 1014.6
20260831114535 81 316 27.0 55.0 0.00 0.00 0.00 49 1014.5
20260831113035 81 337 31.0 50.0 0.00 0.00 0.00 48 1014.5
20260831111549 80 339 20.0 43.0 0.00 0.00 0.00 49 1014.4
20260831110038 80 342 28.0 51.0 0.00 0.00 0.00 48 1014.3
20260831104532 80 329 26.0 69.0 0.00 0.00 0.00 48 1014.2
20260831103030 80 14 31.0 59.0 0.00 0.00 0.00 48 1014.0
20260831101529 81 330 29.0 62.0 0.00 0.00 0.00 47 1013.9
20260831100027 82 330 24.0 51.0 0.00 0.00 0.00 47 1013.9
20260831094529 81 344 21.0 41.0 0.00 0.00 0.00 52 1013.9
20260831093027 82 346 12.0 27.0 0.00 0.00 0.00 52 1013.9
20260831091519 81 336 12.0 36.0 0.00 0.00 0.00 51 1013.8
20260831090018 81 340 24.0 35.0 0.00 0.00 0.00 49 1013.7
20260831084531 81 358 24.0 41.0 0.00 0.00 0.00 51 1013.7
20260831083012 81 9 15.0 32.0 0.00 0.00 0.00 50 1013.6
20260831081518 80 327 11.0 22.0 0.00 0.00 0.00 51 1013.5
20260831080004 79 360 0.0 9.0 0.00 0.00 0.00 52 1013.2
20260831074602 77 360 0.0 0.0 0.00 0.00 0.00 56 1012.9